Time,TemperatureF,DewpointF,PressureIn,WindDirection,WindDirectionDegrees,WindSpeedMPH,WindSpeedGustMPH,Humidity,HourlyPrecipIn,Conditions,Clouds,dailyrainin,SolarRadiationWatts/m^2,SoftwareType,DateUTC
2013-05-25 00:00:00,47.7,36.9,30.24,NW,304,3.0,10.0,66,0.00,,---,0.00,0.00,VWS V14.01,2013-05-25 04:00:00,
2013-05-25 00:26:00,46.4,36.0,30.24,NW,326,3.0,7.0,67,0.00,,---,0.00,0.00,VWS V14.01,2013-05-25 04:26:00,
2013-05-25 00:30:00,46.4,36.0,30.24,NW,326,3.0,7.0,67,0.00,,---,0.00,0.00,VWS V14.01,2013-05-25 04:30:00,
2013-05-25 00:56:00,45.4,36.6,30.23,NW,315,0.0,5.0,71,0.00,,---,0.00,0.00,VWS V14.01,2013-05-25 04:56:00,
2013-05-25 01:00:00,45.4,36.6,30.23,NW,315,0.0,5.0,71,0.00,,---,0.00,0.00,VWS V14.01,2013-05-25 05:00:00,
2013-05-25 01:26:00,44.8,36.3,30.24,WNW,294,0.0,6.0,72,0.00,,---,0.00,0.00,VWS V14.01,2013-05-25 05:26:00,
2013-05-25 01:30:00,44.8,36.3,30.24,WNW,294,0.0,6.0,72,0.00,,---,0.00,0.00,VWS V14.01,2013-05-25 05:30:00,
2013-05-25 01:56:00,45.1,36.6,30.23,NNW,333,0.0,8.0,72,0.00,,---,0.00,0.00,VWS V14.01,2013-05-25 05:56:00,
2013-05-25 02:00:00,45.1,36.6,30.23,NNW,333,0.0,8.0,72,0.00,,---,0.00,0.00,VWS V14.01,2013-05-25 06:00:00,
2013-05-25 02:26:00,45.1,37.0,30.23,NW,317,3.0,9.0,73,0.00,,---,0.00,0.00,VWS V14.01,2013-05-25 06:26:00,
2013-05-25 02:30:00,45.1,37.0,30.23,NW,317,3.0,9.0,73,0.00,,---,0.00,0.00,VWS V14.01,2013-05-25 06:30:00,
2013-05-25 02:56:00,44.4,37.0,30.23,WNW,301,3.0,8.0,75,0.00,,---,0.00,0.00,VWS V14.01,2013-05-25 06:56:00,
2013-05-25 03:00:00,44.4,37.0,30.23,WNW,301,3.0,8.0,75,0.00,,---,0.00,0.00,VWS V14.01,2013-05-25 07:00:00,
2013-05-25 03:26:00,43.9,36.5,30.23,NW,323,6.0,8.0,75,0.00,,---,0.00,0.00,VWS V14.01,2013-05-25 07:26:00,
2013-05-25 03:30:00,43.9,36.5,30.23,NW,323,6.0,8.0,75,0.00,,---,0.00,0.00,VWS V14.01,2013-05-25 07:30:00,
2013-05-25 03:56:00,43.5,36.5,30.23,NW,307,0.0,6.0,76,0.00,,---,0.00,0.00,VWS V14.01,2013-05-25 07:56:00,
2013-05-25 04:00:00,43.5,36.5,30.23,NW,307,0.0,6.0,76,0.00,,---,0.00,0.00,VWS V14.01,2013-05-25 08:00:00,
2013-05-25 04:26:00,43.0,36.6,30.24,NNW,328,3.0,7.0,78,0.00,,---,0.00,0.00,VWS V14.01,2013-05-25 08:26:00,
2013-05-25 04:30:00,43.0,36.6,30.24,NNW,328,3.0,7.0,78,0.00,,---,0.00,0.00,VWS V14.01,2013-05-25 08:30:00,
2013-05-25 04:56:00,42.8,36.8,30.24,West,263,8.0,10.0,79,0.00,,---,0.00,0.00,VWS V14.01,2013-05-25 08:56:00,
2013-05-25 05:00:00,42.8,36.8,30.24,West,263,8.0,10.0,79,0.00,,---,0.00,0.00,VWS V14.01,2013-05-25 09:00:00,
2013-05-25 05:26:00,42.4,36.7,30.23,NW,319,4.0,9.0,80,0.00,,---,0.00,0.00,VWS V14.01,2013-05-25 09:26:00,
2013-05-25 05:30:00,42.4,36.7,30.23,NW,319,4.0,9.0,80,0.00,,---,0.00,0.00,VWS V14.01,2013-05-25 09:30:00,
2013-05-25 05:56:00,42.0,36.6,30.23,NW,316,3.0,7.0,81,0.00,,---,0.00,9.00,VWS V14.01,2013-05-25 09:56:00,
2013-05-25 06:00:00,42.0,36.6,30.23,NW,316,3.0,7.0,81,0.00,,---,0.00,9.00,VWS V14.01,2013-05-25 10:00:00,
2013-05-25 06:26:00,42.4,36.7,30.23,NW,322,4.0,7.0,80,0.00,,---,0.00,58.00,VWS V14.01,2013-05-25 10:26:00,
2013-05-25 06:30:00,42.4,36.7,30.23,NW,322,4.0,7.0,80,0.00,,---,0.00,58.00,VWS V14.01,2013-05-25 10:30:00,
2013-05-25 06:56:00,44.3,37.2,30.24,NW,325,4.0,9.0,76,0.00,,---,0.00,148.00,VWS V14.01,2013-05-25 10:56:00,
2013-05-25 07:00:00,44.3,37.2,30.24,NW,325,4.0,9.0,76,0.00,,---,0.00,148.00,VWS V14.01,2013-05-25 11:00:00,
2013-05-25 07:26:00,44.9,36.4,30.25,NW,317,10.0,15.0,72,0.00,,---,0.00,77.00,VWS V14.01,2013-05-25 11:26:00,
2013-05-25 07:30:00,44.9,36.4,30.25,NW,317,10.0,15.0,72,0.00,,---,0.00,77.00,VWS V14.01,2013-05-25 11:30:00,
2013-05-25 07:56:00,44.4,36.3,30.26,NNW,329,11.0,15.0,73,0.00,,---,0.00,178.00,VWS V14.01,2013-05-25 11:56:00,
2013-05-25 08:00:00,44.4,36.3,30.26,NNW,329,11.0,15.0,73,0.00,,---,0.00,178.00,VWS V14.01,2013-05-25 12:00:00,
2013-05-25 08:26:00,44.7,36.9,30.26,NW,326,6.0,17.0,74,0.00,,---,0.00,230.00,VWS V14.01,2013-05-25 12:26:00,
2013-05-25 08:30:00,44.7,36.9,30.26,NW,326,6.0,17.0,74,0.00,,---,0.00,230.00,VWS V14.01,2013-05-25 12:30:00,
2013-05-25 08:56:00,45.0,36.9,30.27,NNW,338,7.0,15.0,73,0.00,,---,0.00,309.00,VWS V14.01,2013-05-25 12:56:00,
2013-05-25 09:00:00,45.0,36.9,30.27,NNW,338,7.0,15.0,73,0.00,,---,0.00,309.00,VWS V14.01,2013-05-25 13:00:00,
2013-05-25 09:26:00,45.5,36.7,30.27,North,360,9.0,17.0,71,0.00,,---,0.00,404.00,VWS V14.01,2013-05-25 13:26:00,
2013-05-25 09:30:00,45.5,36.7,30.27,North,360,9.0,17.0,71,0.00,,---,0.00,404.00,VWS V14.01,2013-05-25 13:30:00,
2013-05-25 09:56:00,46.8,36.8,30.27,NNW,333,12.0,13.0,68,0.00,,---,0.00,427.00,VWS V14.01,2013-05-25 13:56:00,
2013-05-25 10:00:00,46.8,36.8,30.27,NNW,333,12.0,13.0,68,0.00,,---,0.00,427.00,VWS V14.01,2013-05-25 14:00:00,
2013-05-25 10:26:00,47.1,36.3,30.26,NNW,331,7.0,15.0,66,0.00,,---,0.00,580.00,VWS V14.01,2013-05-25 14:26:00,
2013-05-25 10:30:00,47.1,36.3,30.26,NNW,331,7.0,15.0,66,0.00,,---,0.00,580.00,VWS V14.01,2013-05-25 14:30:00,
2013-05-25 10:56:00,48.7,37.1,30.26,NW,306,6.0,18.0,64,0.00,,---,0.00,837.00,VWS V14.01,2013-05-25 14:56:00,
2013-05-25 11:00:00,48.7,37.1,30.26,NW,306,6.0,18.0,64,0.00,,---,0.00,837.00,VWS V14.01,2013-05-25 15:00:00,
2013-05-25 11:26:00,49.2,36.8,30.27,WNW,302,7.0,17.0,62,0.00,,---,0.00,847.00,VWS V14.01,2013-05-25 15:26:00,
2013-05-25 11:30:00,49.2,36.8,30.27,WNW,302,7.0,17.0,62,0.00,,---,0.00,847.00,VWS V14.01,2013-05-25 15:30:00,
2013-05-25 11:56:00,50.2,36.4,30.27,WNW,296,14.0,18.0,59,0.00,,---,0.00,497.00,VWS V14.01,2013-05-25 15:56:00,
2013-05-25 12:00:00,50.2,36.4,30.27,WNW,296,14.0,18.0,59,0.00,,---,0.00,497.00,VWS V14.01,2013-05-25 16:00:00,
2013-05-25 12:26:00,51.4,36.2,30.27,North,9,1.0,21.0,56,0.00,,---,0.00,563.00,VWS V14.01,2013-05-25 16:26:00,
2013-05-25 12:30:00,51.4,36.2,30.27,North,9,1.0,21.0,56,0.00,,---,0.00,563.00,VWS V14.01,2013-05-25 16:30:00,
2013-05-25 12:56:00,51.8,35.2,30.26,NNW,339,8.0,22.0,53,0.00,,---,0.00,896.00,VWS V14.01,2013-05-25 16:56:00,
2013-05-25 13:00:00,51.8,35.2,30.26,NNW,339,8.0,22.0,53,0.00,,---,0.00,896.00,VWS V14.01,2013-05-25 17:00:00,
2013-05-25 13:26:00,51.4,34.9,30.26,NNW,331,13.0,23.0,53,0.00,,---,0.00,752.00,VWS V14.01,2013-05-25 17:26:00,
2013-05-25 13:30:00,51.4,34.9,30.26,NNW,331,13.0,23.0,53,0.00,,---,0.00,752.00,VWS V14.01,2013-05-25 17:30:00,
2013-05-25 13:56:00,52.2,35.1,30.26,NW,320,4.0,22.0,52,0.00,,---,0.00,912.00,VWS V14.01,2013-05-25 17:56:00,
2013-05-25 14:00:00,52.2,35.1,30.26,NW,320,4.0,22.0,52,0.00,,---,0.00,912.00,VWS V14.01,2013-05-25 18:00:00,
2013-05-25 14:26:00,52.9,34.8,30.25,NW,305,8.0,22.0,50,0.00,,---,0.00,705.00,VWS V14.01,2013-05-25 18:26:00,
2013-05-25 14:30:00,52.9,34.8,30.25,NW,305,8.0,22.0,50,0.00,,---,0.00,705.00,VWS V14.01,2013-05-25 18:30:00,
2013-05-25 14:56:00,53.2,35.1,30.24,WNW,284,10.0,19.0,50,0.00,,---,0.00,838.00,VWS V14.01,2013-05-25 18:56:00,
2013-05-25 15:00:00,53.2,35.1,30.24,WNW,284,10.0,19.0,50,0.00,,---,0.00,838.00,VWS V14.01,2013-05-25 19:00:00,
2013-05-25 15:26:00,54.6,35.8,30.23,NW,311,5.0,19.0,49,0.00,,---,0.00,828.00,VWS V14.01,2013-05-25 19:26:00,
2013-05-25 15:30:00,54.6,35.8,30.23,NW,311,5.0,19.0,49,0.00,,---,0.00,828.00,VWS V14.01,2013-05-25 19:30:00,
2013-05-25 15:56:00,55.1,35.2,30.22,NNW,341,6.0,17.0,47,0.00,,---,0.00,722.00,VWS V14.01,2013-05-25 19:56:00,
2013-05-25 16:00:00,55.1,35.2,30.22,NNW,341,6.0,17.0,47,0.00,,---,0.00,722.00,VWS V14.01,2013-05-25 20:00:00,
2013-05-25 16:26:00,55.7,35.3,30.22,NW,323,8.0,19.0,46,0.00,,---,0.00,649.00,VWS V14.01,2013-05-25 20:26:00,
2013-05-25 16:30:00,55.7,35.3,30.22,NW,323,8.0,19.0,46,0.00,,---,0.00,649.00,VWS V14.01,2013-05-25 20:30:00,
2013-05-25 16:56:00,55.8,34.8,30.21,NW,323,8.0,19.0,45,0.00,,---,0.00,563.00,VWS V14.01,2013-05-25 20:56:00,
2013-05-25 17:00:00,55.8,34.8,30.21,NW,323,8.0,19.0,45,0.00,,---,0.00,563.00,VWS V14.01,2013-05-25 21:00:00,
2013-05-25 17:26:00,56.4,34.8,30.20,WNW,294,8.0,19.0,44,0.00,,---,0.00,483.00,VWS V14.01,2013-05-25 21:26:00,
2013-05-25 17:30:00,56.4,34.8,30.20,WNW,294,8.0,19.0,44,0.00,,---,0.00,483.00,VWS V14.01,2013-05-25 21:30:00,
2013-05-25 17:56:00,56.5,34.9,30.20,NW,316,13.0,20.0,44,0.00,,---,0.00,396.00,VWS V14.01,2013-05-25 21:56:00,
2013-05-25 18:00:00,56.5,34.9,30.20,NW,316,13.0,20.0,44,0.00,,---,0.00,396.00,VWS V14.01,2013-05-25 22:00:00,
2013-05-25 18:26:00,57.3,34.4,30.19,NW,308,6.0,18.0,42,0.00,,---,0.00,311.00,VWS V14.01,2013-05-25 22:26:00,
2013-05-25 18:30:00,57.3,34.4,30.19,NW,308,6.0,18.0,42,0.00,,---,0.00,311.00,VWS V14.01,2013-05-25 22:30:00,
2013-05-25 18:56:00,57.4,35.7,30.19,NW,325,11.0,17.0,44,0.00,,---,0.00,216.00,VWS V14.01,2013-05-25 22:56:00,
2013-05-25 19:00:00,57.4,35.7,30.19,NW,325,11.0,17.0,44,0.00,,---,0.00,216.00,VWS V14.01,2013-05-25 23:00:00,
2013-05-25 19:26:00,57.1,36.0,30.19,NW,324,11.0,13.0,45,0.00,,---,0.00,111.00,VWS V14.01,2013-05-25 23:26:00,
2013-05-25 19:30:00,57.1,36.0,30.19,NW,324,11.0,13.0,45,0.00,,---,0.00,111.00,VWS V14.01,2013-05-25 23:30:00,
2013-05-25 19:56:00,56.4,36.4,30.19,NW,313,6.0,16.0,47,0.00,,---,0.00,39.00,VWS V14.01,2013-05-25 23:56:00,
2013-05-25 20:00:00,56.4,36.4,30.19,NW,313,6.0,16.0,47,0.00,,---,0.00,39.00,VWS V14.01,2013-05-26 00:00:00,
2013-05-25 20:26:00,54.9,38.1,30.19,NW,313,6.0,16.0,53,0.00,,---,0.00,9.00,VWS V14.01,2013-05-26 00:26:00,
2013-05-25 20:30:00,54.9,38.1,30.19,NW,313,6.0,16.0,53,0.00,,---,0.00,9.00,VWS V14.01,2013-05-26 00:30:00,
2013-05-25 20:56:00,53.6,39.2,30.20,NW,322,6.0,16.0,58,0.00,,---,0.00,0.00,VWS V14.01,2013-05-26 00:56:00,
2013-05-25 21:00:00,53.6,39.2,30.20,NW,322,6.0,16.0,58,0.00,,---,0.00,0.00,VWS V14.01,2013-05-26 01:00:00,
2013-05-25 21:26:00,52.4,38.9,30.21,NNW,331,7.0,13.0,60,0.00,,---,0.00,0.00,VWS V14.01,2013-05-26 01:26:00,
2013-05-25 21:30:00,52.4,38.9,30.21,NNW,331,7.0,13.0,60,0.00,,---,0.00,0.00,VWS V14.01,2013-05-26 01:30:00,
2013-05-25 21:56:00,51.4,39.2,30.21,WNW,292,1.0,12.0,63,0.00,,---,0.00,0.00,VWS V14.01,2013-05-26 01:56:00,
2013-05-25 22:00:00,51.4,39.2,30.21,WNW,292,1.0,12.0,63,0.00,,---,0.00,0.00,VWS V14.01,2013-05-26 02:00:00,
2013-05-25 22:26:00,50.4,39.9,30.21,West,277,5.0,11.0,67,0.00,,---,0.00,0.00,VWS V14.01,2013-05-26 02:26:00,
2013-05-25 22:30:00,50.4,39.9,30.21,West,277,5.0,11.0,67,0.00,,---,0.00,0.00,VWS V14.01,2013-05-26 02:30:00,
2013-05-25 22:56:00,49.5,40.1,30.21,NW,323,9.0,11.0,70,0.00,,---,0.00,0.00,VWS V14.01,2013-05-26 02:56:00,
2013-05-25 23:00:00,49.5,40.1,30.21,NW,323,9.0,11.0,70,0.00,,---,0.00,0.00,VWS V14.01,2013-05-26 03:00:00,
2013-05-25 23:26:00,48.8,40.2,30.20,NW,309,2.0,10.0,72,0.00,,---,0.00,0.00,VWS V14.01,2013-05-26 03:26:00,
2013-05-25 23:30:00,48.8,40.2,30.20,NW,309,2.0,10.0,72,0.00,,---,0.00,0.00,VWS V14.01,2013-05-26 03:30:00,
2013-05-25 23:56:00,48.3,40.4,30.20,West,277,0.0,10.0,74,0.00,,---,0.00,0.00,VWS V14.01,2013-05-26 03:56:00,